| time (UTC) | temp C | wind direction | speed KPH | gust KPH | rain 1hr cm | rain 24hr cm | rain mn cm | humidity % | barometer mb |
| 20260507131019 | 8 | 0.0 | 4.8 | 0.00 | 2.03 | 0.03 | 92 | 1007.4 | |
| 20260507130022 | 8 | 180 | 1.6 | 6.4 | 0.00 | 2.03 | 0.03 | 90 | 1007.4 |
| 20260507125021 | 7 | 0.0 | 1.6 | 0.00 | 2.03 | 0.03 | 95 | 1007.3 | |
| 20260507124043 | 7 | 0.0 | 0.0 | 0.00 | 2.03 | 0.03 | 94 | 1007.3 | |
| 20260507123020 | 7 | 0.0 | 3.2 | 0.00 | 2.03 | 0.03 | 97 | 1007.3 | |
| 20260507122042 | 7 | 0.0 | 0.0 | 0.00 | 2.03 | 0.03 | 99 | 1007.2 | |
| 20260507121018 | 6 | 0.0 | 0.0 | 0.00 | 2.03 | 0.03 | 99 | 1007.3 | |
| 20260507120042 | 6 | 0.0 | 0.0 | 0.00 | 2.03 | 0.03 | 99 | 1007.1 | |
| 20260507115021 | 6 | 0.0 | 0.0 | 0.00 | 2.03 | 0.03 | 99 | 1007.1 | |
| 20260507114022 | 6 | 0.0 | 0.0 | 0.00 | 2.03 | 0.03 | 99 | 1007.1 | |
| 20260507113023 | 6 | 0.0 | 0.0 | 0.00 | 2.03 | 0.03 | 99 | 1007.2 | |
| 20260507112022 | 6 | 0.0 | 0.0 | 0.00 | 2.03 | 0.03 | 99 | 1007.1 | |
| 20260507111021 | 5 | 0.0 | 0.0 | 0.00 | 2.03 | 0.03 | 99 | 1007.1 | |
| 20260507110018 | 5 | 0.0 | 0.0 | 0.00 | 2.03 | 0.03 | 99 | 1007.1 | |
| 20260507105021 | 3 | 0.0 | 0.0 | 0.00 | 2.03 | 0.03 | 99 | 1007.0 | |
| 20260507104021 | 3 | 0.0 | 0.0 | 0.00 | 2.03 | 0.03 | 98 | 1006.9 | |
| 20260507103102 | 3 | 0.0 | 0.0 | 0.00 | 2.03 | 0.03 | 98 | 1006.9 | |
| 20260507102022 | 3 | 0.0 | 0.0 | 0.00 | 2.03 | 0.03 | 98 | 1006.9 | |
| 20260507101022 | 3 | 0.0 | 0.0 | 0.00 | 2.03 | 0.03 | 98 | 1006.7 | |
| 20260507100022 | 3 | 0.0 | 0.0 | 0.00 | 2.03 | 0.03 | 98 | 1006.9 | |
| 20260507095017 | 3 | 0.0 | 0.0 | 0.00 | 2.03 | 0.03 | 98 | 1007.0 | |
| 20260507094021 | 3 | 0.0 | 0.0 | 0.00 | 2.03 | 0.03 | 98 | 1007.0 | |
| 20260507093023 | 3 | 0.0 | 0.0 | 0.03 | 2.03 | 0.03 | 98 | 1007.0 | |
| 20260507092022 | 3 | 0.0 | 0.0 | 0.03 | 2.03 | 0.03 | 98 | 1007.3 | |
| 20260507091021 | 3 | 0.0 | 0.0 | 0.03 | 2.03 | 0.03 | 97 | 1007.4 | |
| 20260507090022 | 3 | 0.0 | 0.0 | 0.03 | 2.03 | 0.03 | 97 | 1007.3 | |
| 20260507085022 | 3 | 0.0 | 0.0 | 0.03 | 2.03 | 0.03 | 97 | 1007.2 | |
| 20260507084018 | 4 | 0.0 | 0.0 | 0.03 | 2.03 | 0.03 | 97 | 1007.3 | |
| 20260507083022 | 4 | 0.0 | 0.0 | 0.00 | 2.01 | 0.00 | 97 | 1007.3 | |
| 20260507082022 | 4 | 0.0 | 0.0 | 0.00 | 2.01 | 0.00 | 97 | 1007.4 | |
| 20260507081043 | 5 | 0.0 | 0.0 | 0.00 | 2.01 | 0.00 | 97 | 1007.5 | |
| 20260507080022 | 5 | 0.0 | 0.0 | 0.00 | 2.01 | 0.00 | 97 | 1007.2 | |
| 20260507075021 | 5 | 0.0 | 0.0 | 0.00 | 2.01 | 0.00 | 97 | 1007.1 | |
| 20260507074022 | 5 | 0.0 | 0.0 | 0.00 | 2.01 | 0.00 | 97 | 1007.0 | |
| 20260507073018 | 5 | 0.0 | 0.0 | 0.00 | 2.01 | 0.00 | 97 | 1006.8 | |
| 20260507072022 | 6 | 0.0 | 0.0 | 0.00 | 2.01 | 0.00 | 98 | 1006.8 | |
| 20260507071022 | 6 | 0.0 | 0.0 | 0.00 | 2.01 | 0.00 | 98 | 1006.6 | |
| 20260507070042 | 6 | 0.0 | 0.0 | 0.00 | 2.01 | 0.00 | 98 | 1006.7 | |
| 20260507065022 | 6 | 0.0 | 0.0 | 0.00 | 2.01 | 0.00 | 98 | 1006.7 | |
| 20260507064021 | 6 | 0.0 | 1.6 | 0.00 | 2.01 | 0.00 | 98 | 1006.6 | |
| 20260507063018 | 6 | 0.0 | 0.0 | 0.00 | 2.01 | 0.00 | 97 | 1006.8 | |
| 20260507062018 | 6 | 0.0 | 0.0 | 0.00 | 2.01 | 0.00 | 98 | 1006.6 | |
| 20260507061021 | 6 | 0.0 | 0.0 | 0.00 | 2.01 | 0.00 | 98 | 1006.6 | |
| 20260507060042 | 6 | 0.0 | 0.0 | 0.00 | 2.01 | 0.00 | 98 | 1007.3 | |
| 20260507055022 | 6 | 0.0 | 0.0 | 0.00 | 2.01 | 0.00 | 97 | 1007.1 | |
| 20260507054042 | 6 | 0.0 | 0.0 | 0.00 | 2.01 | 0.00 | 97 | 1007.0 | |
| 20260507053042 | 6 | 0.0 | 0.0 | 0.00 | 2.01 | 0.00 | 97 | 1007.1 | |
| 20260507052017 | 7 | 0.0 | 0.0 | 0.00 | 2.01 | 0.00 | 97 | 1007.1 | |
| 20260507051022 | 7 | 0.0 | 0.0 | 0.00 | 2.01 | 0.00 | 98 | 1007.2 | |
| 20260507050022 | 7 | 0.0 | 0.0 | 0.00 | 2.01 | 0.00 | 98 | 1006.8 | |
| 20260507045021 | 7 | 0.0 | 0.0 | 0.00 | 2.01 | 0.00 | 98 | 1006.9 | |
| 20260507044021 | 7 | 0.0 | 4.8 | 0.00 | 2.01 | 0.00 | 98 | 1007.0 | |
| 20260507043020 | 7 | 0.0 | 0.0 | 0.00 | 2.01 | 0.00 | 98 | 1007.0 | |
| 20260507042022 | 7 | 0.0 | 0.0 | 0.00 | 2.03 | 0.00 | 98 | 1006.7 | |
| 20260507041018 | 7 | 0.0 | 0.0 | 0.00 | 2.03 | 0.00 | 98 | 1006.5 | |
| 20260507040042 | 7 | 0.0 | 0.0 | 0.00 | 2.03 | 2.03 | 98 | 1006.5 | |
| 20260507035021 | 7 | 0.0 | 0.0 | 0.00 | 2.03 | 2.03 | 98 | 1006.6 | |
| 20260507034101 | 7 | 0.0 | 3.2 | 0.00 | 2.03 | 2.03 | 97 | 1006.9 | |
| 20260507033021 | 7 | 0.0 | 0.0 | 0.03 | 2.03 | 2.03 | 97 | 1007.0 | |
| 20260507032021 | 7 | 0.0 | 0.0 | 0.03 | 2.03 | 2.03 | 97 | 1007.0 | |
| 20260507031017 | 7 | 0.0 | 0.0 | 0.05 | 2.03 | 2.03 | 98 | 1007.0 | |
| 20260507030021 | 7 | 0.0 | 0.0 | 0.05 | 2.03 | 2.03 | 97 | 1007.0 | |
| 20260507025021 | 7 | 0.0 | 4.8 | 0.08 | 2.03 | 2.03 | 98 | 1007.1 | |
| 20260507024021 | 7 | 0.0 | 0.0 | 0.08 | 2.03 | 2.03 | 98 | 1007.2 | |
| 20260507023042 | 7 | 0.0 | 0.0 | 0.08 | 2.01 | 2.01 | 98 | 1007.5 | |
| 20260507022021 | 7 | 0.0 | 0.0 | 0.10 | 2.01 | 2.01 | 98 | 1007.4 | |
| 20260507021018 | 7 | 0.0 | 0.0 | 0.10 | 1.98 | 1.98 | 98 | 1007.1 | |
| 20260507020037 | 7 | 0.0 | 0.0 | 0.10 | 1.98 | 1.98 | 98 | 1007.0 | |
| 20260507015021 | 7 | 0.0 | 0.0 | 0.10 | 1.96 | 1.96 | 98 | 1007.0 | |
| 20260507014041 | 7 | 0.0 | 0.0 | 0.13 | 1.96 | 1.96 | 97 | 1007.0 | |
| 20260507013021 | 7 | 0.0 | 0.0 | 0.13 | 1.93 | 1.93 | 97 | 1007.0 | |
| 20260507012021 | 7 | 0.0 | 4.8 | 0.13 | 1.91 | 1.91 | 97 | 1007.1 | |
| 20260507011041 | 7 | 0.0 | 3.2 | 0.10 | 1.88 | 1.88 | 97 | 1006.7 | |
| 20260507010017 | 7 | 293 | 1.6 | 6.4 | 0.10 | 1.88 | 1.88 | 97 | 1006.6 |
| 20260507005017 | 8 | 293 | 1.6 | 4.8 | 0.08 | 1.85 | 1.85 | 97 | 1006.4 |
| 20260507004021 | 8 | 0.0 | 3.2 | 0.05 | 1.83 | 1.83 | 97 | 1006.3 | |
| 20260507003021 | 8 | 293 | 1.6 | 6.4 | 0.03 | 1.80 | 1.80 | 97 | 1005.9 |
| 20260507002022 | 8 | 293 | 1.6 | 8.0 | 0.00 | 1.78 | 1.78 | 97 | 1006.1 |
| 20260507001042 | 8 | 0.0 | 4.8 | 0.00 | 1.78 | 1.78 | 97 | 1005.8 | |
| 20260507000023 | 8 | 0.0 | 4.8 | 0.00 | 1.78 | 1.78 | 97 | 1005.4 | |
| 20260506235017 | 8 | 0.0 | 4.8 | 0.00 | 1.78 | 1.78 | 97 | 1005.2 | |
| 20260506234021 | 9 | 0.0 | 3.2 | 0.00 | 1.78 | 1.78 | 97 | 1005.1 | |
| 20260506233021 | 9 | 0.0 | 3.2 | 0.00 | 1.78 | 1.78 | 97 | 1004.9 | |
| 20260506232041 | 9 | 0.0 | 0.0 | 0.00 | 1.78 | 1.78 | 96 | 1004.9 | |
| 20260506231022 | 10 | 0.0 | 1.6 | 0.00 | 1.78 | 1.78 | 96 | 1004.9 | |
| 20260506230021 | 10 | 0.0 | 6.4 | 0.00 | 1.78 | 1.78 | 96 | 1004.7 | |
| 20260506225021 | 10 | 0.0 | 1.6 | 0.00 | 1.78 | 1.78 | 96 | 1004.7 | |
| 20260506224017 | 10 | 0.0 | 1.6 | 0.03 | 1.78 | 1.78 | 96 | 1004.7 | |
| 20260506223021 | 10 | 0.0 | 6.4 | 0.03 | 1.78 | 1.78 | 96 | 1004.3 | |
| 20260506222021 | 11 | 0.0 | 6.4 | 0.03 | 1.78 | 1.78 | 96 | 1004.3 | |
| 20260506221021 | 11 | 293 | 1.6 | 8.0 | 0.08 | 1.78 | 1.78 | 95 | 1004.1 |
| 20260506220022 | 12 | 293 | 1.6 | 9.7 | 0.13 | 1.78 | 1.78 | 94 | 1004.1 |
| 20260506215021 | 13 | 0.0 | 17.7 | 0.15 | 1.78 | 1.78 | 94 | 1004.1 | |
| 20260506214021 | 13 | 0.0 | 6.4 | 0.18 | 1.75 | 1.75 | 96 | 1004.0 | |
| 20260506213037 | 14 | 0.0 | 3.2 | 0.25 | 1.75 | 1.75 | 96 | 1003.8 | |
| 20260506212021 | 15 | 293 | 3.2 | 11.3 | 0.28 | 1.75 | 1.75 | 95 | 1003.9 |
| 20260506211021 | 15 | 270 | 1.6 | 6.4 | 0.23 | 1.75 | 1.70 | 97 | 1003.5 |
| 20260506210041 | 15 | 180 | 1.6 | 6.4 | 0.18 | 1.70 | 1.65 | 96 | 1003.4 |
| 20260506205022 | 16 | 180 | 1.6 | 9.7 | 0.18 | 1.70 | 1.63 | 97 | 1003.4 |
| 20260506204021 | 16 | 0.0 | 1.6 | 0.13 | 1.93 | 1.57 | 96 | 1003.5 | |
| 20260506203021 | 16 | 0.0 | 4.8 | 0.05 | 1.85 | 1.50 | 96 | 1003.6 | |
| 20260506202017 | 16 | 0.0 | 14.5 | 0.03 | 1.83 | 1.47 | 95 | 1003.6 | |
| 20260506201021 | 16 | 0.0 | 8.0 | 0.03 | 1.83 | 1.47 | 95 | 1003.7 | |
| 20260506200021 | 16 | 158 | 1.6 | 11.3 | 0.03 | 1.83 | 1.47 | 95 | 1003.8 |
| 20260506195022 | 16 | 0.0 | 6.4 | 0.03 | 1.80 | 1.45 | 95 | 1003.9 | |
| 20260506194101 | 16 | 180 | 3.2 | 9.7 | 0.03 | 1.80 | 1.45 | 94 | 1004.0 |
| 20260506193021 | 16 | 158 | 3.2 | 12.9 | 0.05 | 1.80 | 1.45 | 94 | 1004.1 |
| 20260506192018 | 16 | 180 | 1.6 | 8.0 | 0.13 | 1.80 | 1.45 | 95 | 1004.1 |
| 20260506191023 | 15 | 0.0 | 4.8 | 0.43 | 1.80 | 1.45 | 96 | 1004.2 | |
| 20260506190021 | 15 | 203 | 1.6 | 6.4 | 0.76 | 1.80 | 1.45 | 97 | 1004.4 |
| 20260506185041 | 15 | 225 | 1.6 | 6.4 | 0.97 | 1.78 | 1.42 | 97 | 1004.4 |
| 20260506184021 | 15 | 0.0 | 4.8 | 1.04 | 1.78 | 1.42 | 98 | 1004.5 | |
| 20260506183019 | 14 | 203 | 1.6 | 9.7 | 1.09 | 1.75 | 1.40 | 98 | 1004.6 |
| 20260506182021 | 14 | 270 | 1.6 | 8.0 | 1.07 | 1.68 | 1.32 | 97 | 1004.7 |
| 20260506181017 | 15 | 338 | 1.6 | 8.0 | 0.79 | 1.37 | 1.02 | 97 | 1004.7 |
| 20260506180021 | 15 | 0.0 | 3.2 | 0.48 | 1.04 | 0.69 | 96 | 1004.8 | |
| 20260506175042 | 15 | 270 | 1.6 | 6.4 | 0.25 | 0.81 | 0.46 | 96 | 1004.9 |
| 20260506174021 | 15 | 180 | 1.6 | 8.0 | 0.23 | 0.74 | 0.38 | 96 | 1004.9 |
| 20260506173021 | 15 | 135 | 4.8 | 19.3 | 0.15 | 0.66 | 0.30 | 95 | 1005.0 |
| 20260506172021 | 15 | 135 | 3.2 | 14.5 | 0.13 | 0.61 | 0.25 | 95 | 1005.1 |
| 20260506171021 | 15 | 90 | 3.2 | 11.3 | 0.10 | 0.58 | 0.23 | 95 | 1005.1 |
| 20260506170017 | 15 | 135 | 3.2 | 12.9 | 0.10 | 0.56 | 0.20 | 95 | 1005.3 |
| 20260506165021 | 15 | 0.0 | 3.2 | 0.10 | 0.56 | 0.20 | 95 | 1005.3 | |
| 20260506164023 | 15 | 0.0 | 6.4 | 0.05 | 0.51 | 0.15 | 95 | 1005.7 | |
| 20260506163021 | 15 | 135 | 4.8 | 12.9 | 0.05 | 0.51 | 0.15 | 94 | 1005.7 |
| 20260506162021 | 15 | 135 | 4.8 | 14.5 | 0.05 | 0.48 | 0.13 | 95 | 1005.7 |
| 20260506161021 | 15 | 113 | 3.2 | 12.9 | 0.05 | 0.48 | 0.13 | 94 | 1005.8 |
| 20260506160021 | 15 | 113 | 4.8 | 12.9 | 0.05 | 0.46 | 0.10 | 94 | 1006.2 |
| 20260506155017 | 15 | 135 | 3.2 | 16.1 | 0.05 | 0.46 | 0.10 | 94 | 1006.5 |
| 20260506154021 | 15 | 113 | 1.6 | 8.0 | 0.08 | 0.46 | 0.10 | 94 | 1006.6 |
| 20260506153021 | 15 | 0.0 | 4.8 | 0.08 | 0.46 | 0.10 | 94 | 1006.7 | |
| 20260506152021 | 15 | 0.0 | 1.6 | 0.05 | 0.43 | 0.08 | 94 | 1006.9 | |
| 20260506151041 | 15 | 0.0 | 0.0 | 0.05 | 0.43 | 0.08 | 93 | 1007.0 | |
| 20260506150022 | 15 | 0.0 | 0.0 | 0.03 | 0.41 | 0.05 | 93 | 1007.0 | |
| 20260506145018 | 15 | 0.0 | 4.8 | 0.03 | 0.41 | 0.05 | 92 | 1006.9 | |
| 20260506144022 | 15 | 158 | 1.6 | 9.7 | 0.00 | 0.38 | 0.03 | 90 | 1006.9 |
| 20260506143041 | 15 | 203 | 1.6 | 6.4 | 0.00 | 0.38 | 0.03 | 89 | 1007.1 |
| 20260506142041 | 15 | 0.0 | 4.8 | 0.00 | 0.38 | 0.03 | 88 | 1006.9 | |
| 20260506141023 | 15 | 0.0 | 3.2 | 0.00 | 0.38 | 0.03 | 88 | 1006.9 | |
| 20260506140019 | 15 | 0.0 | 6.4 | 0.00 | 0.38 | 0.03 | 87 | 1006.9 | |
| 20260506135041 | 15 | 0.0 | 3.2 | 0.00 | 0.38 | 0.03 | 88 | 1006.8 | |
| 20260506134017 | 15 | 113 | 1.6 | 8.0 | 0.00 | 0.38 | 0.03 | 88 | 1006.7 |
| 20260506133021 | 15 | 0.0 | 4.8 | 0.00 | 0.38 | 0.03 | 89 | 1007.0 | |
| 20260506132021 | 14 | 0.0 | 3.2 | 0.00 | 0.38 | 0.03 | 91 | 1007.3 |